[[{"header":{"parameterUnit":"m.s-1","parameterCategory":1,"la1":30.2992,"la2":30.254,"lo1":-89.0895,"lo2":-89.0443,"dy":0.0025,"dx":0.0025,"nx":19,"ny":19,"refTime":"2026-03-14T03:00:00:Z","depth":0,"parameterNumber":2,"parameterNumberName":"U-component_of_WINDS"},"data":[0,0,0,0.1035,0.1035,0.1018,0.1018,0.1014,0.1015,0,0,0,0,0,0,0,0,0,0,0,0.105,0.1051,0.1035,0.1035,0.1018,0.1018,0.1014,0.1015,0,0,0,0,0,0,0,0,0,0,0,0.105,0.1051,0.1051,0.1035,0.1018,0.1018,0.1014,0.1021,0,0,0,0,0,0,0,0,0,0,0.1035,0.1058,0.1051,0.1051,0.1035,0.1018,0.1018,0.1021,0.1021,0.103,0,0.104,0,0.1027,0.1015,0.1015,0,0,0,0.1028,0.1059,0.1045,0.1051,0.1035,0.1018,0.1024,0.1021,0.102,0.1029,0.1039,0.1039,0.1027,0.1015,0.1016,0.109,0.1091,0,0,0.1029,0.1053,0.1045,0.1045,0.1047,0.1024,0.1023,0.102,0.1033,0.1039,0.1038,0.1027,0.1016,0.1016,0.1089,0.109,0,0,0,0.1036,0.1054,0.104,0.1046,0.1041,0.1024,0.1023,0.1033,0.1026,0.1038,0.1027,0.1016,0.1016,0.1089,0.109,0.1146,0,0,0,0.1037,0.1058,0.1041,0.1055,0.1041,0.1037,0.1036,0.1027,0.1025,0.1027,0.1016,0.1016,0.1088,0.1089,0.1143,0.1169,0,0,0,0.1048,0.106,0.106,0.1057,0.105,0.1036,0.1029,0.1026,0.1019,0.1015,0.1016,0.1087,0.1089,0.114,0.1165,0.1196,0,0,0,0.1068,0.1112,0.1062,0.1107,0.105,0.1071,0.1029,0.1043,0.1047,0.1016,0.1088,0.109,0.1139,0.1162,0.1193,0.1226,0.1242,0,0,0.1137,0.1121,0.1146,0.11,0.1136,0.1072,0.1116,0.1097,0.1075,0.1087,0.1088,0.1144,0.1164,0.1195,0.1325,0.1338,0,0,0,0.1176,0.1194,0.1198,0.1202,0.1188,0.1178,0.115,0.1143,0.1151,0.1086,0.1163,0.1174,0.1192,0.1206,0.1218,0.1231,0.1097,0.1097,0.1097,0.1309,0.1278,0.1316,0.1283,0.1288,0.1258,0.1259,0.1245,0.1213,0.1232,0.1235,0.1317,0.1335,0.1343,0.1358,0.125,0.125,0.125,0.1251,0.1408,0.1428,0.1383,0.1405,0.1372,0.139,0.1364,0.134,0.1353,0.1312,0.1326,0.1284,0.1359,0.137,0.1255,0.1254,0.1253,0.1253,0.1253,0.1491,0.1495,0.1485,0.1488,0.1494,0.1459,0.1473,0.1443,0.1415,0.1429,0.1429,0.1428,0.1423,0.1431,0.1431,0.1431,0.1432,0.1432,0.1432,0.1581,0.1568,0.1583,0.1571,0.157,0.1565,0.1535,0.1534,0.1524,0.1502,0.1501,0.1468,0.1372,0.1348,0.1436,0.1435,0.1435,0.1434,0.1434,0.1692,0.1662,0.1685,0.1683,0.1668,0.1676,0.1637,0.1637,0.1631,0.1639,0.1603,0.1536,0.1518,0.1509,0.149,0.1609,0.1609,0.1609,0.1609,0.1762,0.175,0.1766,0.1766,0.1762,0.173,0.1758,0.1736,0.1709,0.1704,0.1683,0.1654,0.1646,0.1633,0.1621,0.1602,0.1747,0.1747,0.1748,0.1828,0.1814,0.1843,0.1815,0.18,0.1789,0.1815,0.1818,0.1781,0.1752,0.1699,0.1694,0.1647,0.1633,0.1603,0.1586,0.1551,0,0]},{"header":{"parameterUnit":"m.s-1","parameterCategory":1,"la1":30.2992,"la2":30.254,"lo1":-89.0895,"lo2":-89.0443,"dy":0.0025,"dx":0.0025,"nx":19,"ny":19,"refTime":"2026-03-14T03:00:00:Z","depth":0,"parameterNumber":3,"parameterNumberName":"V-component_of_WINDS"},"data":[0,0,0,6.6845,6.685,6.706,6.7061,6.7314,6.7316,0,0,0,0,0,0,0,0,0,0,0,6.6773,6.6774,6.6845,6.685,6.706,6.7061,6.7314,6.7316,0,0,0,0,0,0,0,0,0,0,0,6.6772,6.6774,6.6775,6.6851,6.706,6.7061,6.7313,6.716,0,0,0,0,0,0,0,0,0,0,6.6959,6.6881,6.6773,6.6775,6.6852,6.7059,6.7061,6.7153,6.717,6.7212,0,6.7245,0,6.7285,6.7332,6.7333,0,0,0,6.6858,6.6867,6.6934,6.6776,6.6854,6.7059,6.6967,6.7163,6.7181,6.7234,6.7249,6.7259,6.7289,6.7333,6.7335,6.755,6.7551,0,0,6.6846,6.6805,6.692,6.6945,6.6911,6.6961,6.6974,6.7174,6.7189,6.725,6.7265,6.7293,6.7335,6.7337,6.755,6.755,0,0,0,6.6808,6.6796,6.6858,6.6934,6.6973,6.6966,6.6982,6.718,6.7203,6.7268,6.7296,6.7336,6.7339,6.7549,6.755,6.7541,0,0,0,6.6801,6.6774,6.6853,6.6829,6.6969,6.7079,6.6982,6.7189,6.7213,6.7295,6.7336,6.7342,6.7548,6.755,6.754,6.7543,0,0,0,6.6763,6.677,6.6796,6.6827,6.6916,6.7077,6.7112,6.7196,6.723,6.7333,6.7342,6.7548,6.7549,6.7539,6.7542,6.7588,0,0,0,6.6709,6.6785,6.6795,6.6891,6.6913,6.707,6.7111,6.723,6.7317,6.7338,6.7548,6.755,6.7538,6.7541,6.7586,6.7619,6.7629,0,0,6.6781,6.6792,6.6851,6.6867,6.7011,6.7041,6.7185,6.7303,6.7351,6.7481,6.7487,6.754,6.7541,6.7588,6.7699,6.7706,0,0,0,6.686,6.6902,6.6949,6.7031,6.7124,6.7205,6.7306,6.7351,6.7464,6.7409,6.7571,6.7573,6.7602,6.762,6.7626,6.7654,6.7556,6.7556,6.7556,6.69,6.6959,6.7062,6.7145,6.7224,6.733,6.7399,6.7478,6.7512,6.755,6.7588,6.7649,6.7668,6.7673,6.7701,6.7611,6.7611,6.7611,6.7611,6.701,6.7079,6.7126,6.7242,6.7304,6.7403,6.7509,6.7531,6.7633,6.7624,6.7653,6.7637,6.7679,6.7707,6.7611,6.7611,6.7611,6.7611,6.7611,6.7042,6.7085,6.7139,6.7265,6.7355,6.7439,6.7535,6.7588,6.7639,6.7667,6.7714,6.7714,6.7721,6.7686,6.7686,6.7686,6.7687,6.7687,6.7687,6.7053,6.7115,6.7189,6.7296,6.7357,6.7443,6.7552,6.7614,6.7696,6.7727,6.7727,6.7759,6.7673,6.7649,6.769,6.769,6.7689,6.7689,6.7689,6.7141,6.713,6.7244,6.7305,6.7437,6.7524,6.7592,6.7713,6.7772,6.7818,6.7845,6.7773,6.7787,6.7783,6.7763,6.7832,6.7832,6.7832,6.7832,6.7167,6.718,6.731,6.7404,6.7502,6.7576,6.7705,6.7792,6.788,6.7921,6.7919,6.7899,6.7892,6.7911,6.7904,6.7886,6.7985,6.7985,6.7985,6.7224,6.725,6.7348,6.7434,6.7543,6.7634,6.7758,6.7865,6.7963,6.7992,6.7954,6.7947,6.7916,6.7902,6.7927,6.7914,6.7885,0,0]}]]